logo Eve Who17,868,145 Characters
839,342 Corporations
9,329 Alliances

Home Pilots Corporations Alliances FAQ 

corp logo
alli logo
character image
Character:Lalu Antollare
Corporation:Obvious is Obvious
Alliance:FATAL ORDER
Sec. Status:4.4
Links:zKillboard
EveSkillBoard
Eve-Search
Last Updated: 2019-08-17 14:22:22 | 96798563
Corp. History
 NameJoinedLeft
corp logoObvious is Obvious2019/02/08 22:09
corp logoThe Scope2019/01/22 15:212019/02/08 22:08
corp logoBrotherhood of Truth2019/01/18 22:472019/01/22 15:20
corp logoThe Scope2019/01/10 19:532019/01/18 22:46
corp logoAstrology Knight2018/11/02 20:082019/01/10 19:52
corp logoThe Scope2018/10/20 05:292018/11/02 20:07
corp logoKinetic Strlke2018/09/06 00:122018/10/20 05:28
corp logoThe Scope2018/07/24 14:402018/09/06 00:11
corp logoHC - Mackenzee2018/03/20 18:172018/07/24 14:39
corp logoAirHogs2018/03/06 15:502018/03/20 18:16
corp logoHC - Ice Munchers2018/03/06 02:452018/03/06 15:49
corp logoThe Scope2018/03/05 23:162018/03/06 02:44
corp logoDark Industrys Inc2018/02/10 04:292018/03/05 23:15
corp logoThe Scope2018/02/10 01:592018/02/10 04:28
corp logoQuantum Dominion2017/11/08 22:582018/02/10 01:58
corp logoTaurus Quantum Technologies2017/03/05 14:042017/11/08 22:57
corp logoThe Scope2017/03/04 19:402017/03/05 14:03
corp logoMission Ready Mining2017/02/21 06:102017/03/04 19:39
corp logoThe Scope2017/02/21 06:012017/02/21 06:09
corp logoDark Horizon IMG2016/12/04 01:162017/02/21 06:00
corp logoThe Scope2016/11/27 21:382016/12/04 01:15
corp logoPandemic Horde Inc.2016/11/27 18:142016/11/27 21:37
corp logoThe Scope2016/11/27 18:072016/11/27 18:13
corp logoDark Horizon IMG2016/11/21 02:322016/11/27 18:06
corp logoCenter for Advanced Studies2016/10/06 17:352016/11/21 02:31


Any pilots, corporations, or alliances that relate to actual people or entities are purely coincidental.
7q/12ms Disclaimer A / C Brought to you by: Squizz Caphinator Forum Thread
EVE Online and the EVE logo are the registered trademarks of CCP hf. All rights are reserved worldwide. All other trademarks are the property of their respective owners. EVE Online, the EVE logo, EVE and all associated logos and designs are the intellectual property of CCP hf. All artwork, screenshots, characters, vehicles, storylines, world facts or other recognizable features of the intellectual property relating to these trademarks are likewise the intellectual property of CCP hf. CCP hf. has granted permission to evewho.com to use EVE Online and all associated logos and designs for promotional and information purposes on its website but does not endorse, and is not in any way affiliated with, evewho.com. CCP is in no way responsible for the content on or functioning of this website, nor can it be liable for any damage arising from the use of this website.